Regional Weather Roundup
Issued by NWS Jackson, KY

Home | Current Version | Previous Version | Graphics & Text | Print | Product List | Glossary Off
Versions: 1 2 3 4 5 6 7 8 9 10 11 12 13 14 15 16 17 18 19 20 21 22 23 24 25 26 27

000
ASUS43 KJKL 280210
RWRJKL

EAST KENTUCKY HOURLY WEATHER ROUNDUP
NATIONAL WEATHER SERVICE JACKSON KY
1000 PM EDT SAT AUG 27 2016

NOTE: "FAIR" INDICATES FEW OR NO CLOUDS BELOW 12,000 FEET WITH
NO SIGNIFICANT WEATHER AND/OR OBSTRUCTIONS TO VISIBILITY.

* THESE REPORTS ARE NOT UNDER NWS QUALITY CONTROL AND MAY NOT
  REPORT WEATHER SUCH AS PRECIPITATION AND FOG.

KYZ079-080-083-085-087-088-110-112-115-119-120-280300
...EASTERN KENTUCKY...

CITY           SKY/WX    TMP DP  RH WIND       PRES   REMARKS
JACKSON        CLOUDY    81  72  74 CALM      30.17R
LONDON         CLOUDY    79  72  79 SE5       30.16R
SOMERSET*      CLOUDY    77  70  78 CALM      30.14F
MONTICELLO*    CLOUDY   N/A N/A N/A NE12      30.16F
WILLIAMSBURG*  CLOUDY    79  72  78 SE7       30.18R
MIDDLESBORO*   PTCLDY    70  69  96 CALM      30.20F
HARLAN APT*    CLOUDY    77  68  73 SW9G17    30.21R
PIKE CO APT*     N/A     81  72  76 CALM      30.18R
BIG SANDY APT* MOCLDY    80  74  82 CALM      30.17R
MOREHEAD APT*  CLEAR     75  72  88 NW3       30.17R
ASHLAND*       CLEAR     79  72  78 CALM      30.12R
$$

KYZ035-036-041-042-044-050-067-078-099-280300
...CENTRAL KENTUCKY...

CITY           SKY/WX    TMP DP  RH WIND       PRES   REMARKS
MT STERLING*   CLEAR     72  72 100 CALM      30.17R
FLEMING/MASON* CLEAR     73  71  93 E5        30.16R
DANVILLE*      PTCLDY    72  72 100 CALM      30.14F
LEXINGTON      CLOUDY    79  71  76 E7        30.14S
FRANKFORT      PTCLDY    81  71  71 CALM      30.12S
LOUISVILLE     CLOUDY    82  73  74 SE7       30.09S
GLASGOW*       PTCLDY    74  74  97 CALM      30.10F
BOWLING GREEN  PTCLDY    78  74  87 CALM      30.10R
$$

KYZ091>093-OHZ055-061-077-WVZ005-015-034-035-042-280300
...SOUTHERN OHIO/WEST VIRGINIA...

CITY           SKY/WX    TMP DP  RH WIND       PRES   REMARKS
COVINGTON      MOCLDY    76  73  91 E3        30.13S
COLUMBUS       PTCLDY    72  69  90 CALM      30.14S
DAYTON         PTCLDY    74  72  93 SE5       30.16R
WILMINGTON     PTCLDY    71  69  93 CALM      30.15R
HUNTINGTON     CLEAR     80  74  81 NW8       30.14R
CHARLESTON     PTCLDY    77  72  84 CALM      30.15R
PINEVILLE*     MOCLDY    74  69  85 MISG      30.25S
BECKLEY        PTCLDY    77  67  71 CALM      30.26R
BLUEFIELD      CLOUDY    72  67  84 E5        30.29S
LOGAN CO APT*    N/A     81  72  74 CALM      30.18R
$$

VAZ002-007-008-TNZ017-027-036-066-071-280300
...SOUTHWEST VIRGINIA/EAST TENNESSEE...

CITY           SKY/WX    TMP DP  RH WIND       PRES   REMARKS
WISE*          CLOUDY    77  61  57 CALM      30.28R
JONESVILLE*      N/A     81  70  69 SW7       30.21R
ABINGDON*      MOCLDY    79  71  78 CALM      30.24R
BRISTOL        MOCLDY    79  69  71 CALM      30.20R
MORRISTOWN*    PTCLDY    77  68  73 CALM      30.17R
SEVIERVILLE*   CLEAR     73  70  88 CALM      30.16R
KNOXVILLE      PTCLDY    74  69  85 E3        30.15R
OAK RIDGE      MOCLDY    79  70  74 CALM      30.17R
CROSSVILLE     PTCLDY    75  69  81 CALM      30.19R
NASHVILLE      PTCLDY    75  72  90 E3        30.11R
$$

...KEY TO REMARKS...
VSB - VISIBILITY IN MILES
WCI - WIND CHILL INDEX
HX  - HEAT INDEX

$$




USA.gov is the U.S. government's official web portal to all federal, state and local government web resources and services.